EW3726 Weather Reports


Display with metric or nautical units.
time (UTC)temp
F
wind
direction
speed
MPH
gust
MPH
rain 1hr
in
rain 24hr
in
rain mn
in
humidity
%
barometer
mb
20200406163042 57 301 5.0 9.0 0.00 0.00 0.00 29 1015.4
20200406161540 56 219 2.0 10.0 0.00 0.00 0.00 29 1015.4
20200406160029 56 59 3.0 12.0 0.00 0.00 0.00 32 1015.5
20200406153036 54 309 3.0 10.0 0.00 0.00 0.00 33 1015.9
20200406151654 54 323 3.0 9.0 0.00 0.00 0.00 36 1016.3
20200406150058 53 249 3.0 8.0 0.00 0.00 0.00 37 1016.4
20200406143030 51 2.0 11.0 0.00 0.00 0.00 43 1016.5
20200406141504 51 350 3.0 16.0 0.00 0.00 0.00 43 1016.6
20200406140219 50 284 2.0 12.0 0.00 0.00 0.00 45 1016.6
20200406133056 49 335 4.0 15.0 0.00 0.00 0.00 49 1016.8
20200406131713 49 101 3.0 10.0 0.00 0.00 0.00 53 1016.7
20200406130325 48 345 3.0 10.0 0.00 0.00 0.00 57 1016.7
20200406123107 47 245 4.0 11.0 0.00 0.00 0.00 64 1016.7
20200406121804 47 123 2.0 8.0 0.00 0.00 0.00 67 1016.8
20200406120059 0 0.0 0.0 0.00 0.00 0.00 1016.7
20200406113035 0 0.0 0.0 0.00 0.00 0.00 1016.7
20200406111558 0 0.0 0.0 0.00 0.00 0.00 1016.7
20200406110035 0 0.0 0.0 0.00 0.00 0.00 1016.5
20200406103035 0 0.0 0.0 0.00 0.00 0.00 1016.1
20200406101548 0 0.0 0.0 0.00 0.00 0.00 1015.8
20200406100013 0 0.0 0.0 0.00 0.00 0.00 1015.8
20200406093012 0 0.0 0.0 0.00 0.00 0.00 1015.5
20200406090152 42 320 1.0 6.0 0.00 0.00 0.00 85 1015.3
20200406083217 40 141 0.0 2.0 0.00 0.00 0.00 95 1015.0
20200406081757 39 50 0.0 0.0 0.00 0.00 0.00 96 1015.0
20200406080130 39 53 0.0 0.0 0.00 0.00 0.00 95 1014.9
20200406073150 40 103 0.0 0.0 0.00 0.00 0.00 95 1014.9
20200406071632 40 52 0.0 0.0 0.00 0.00 0.00 94 1014.7
20200406070215 41 114 0.0 0.0 0.00 0.00 0.00 94 1014.8
20200406063126 42 197 0.0 1.0 0.00 0.00 0.00 94 1014.8
20200406061648 43 221 0.0 0.0 0.00 0.00 0.00 93 1014.7
20200406060349 43 280 0.0 1.0 0.00 0.00 0.00 93 1014.6
20200406053107 44 345 0.0 0.0 0.00 0.00 0.00 92 1014.8
20200406051558 44 269 0.0 1.0 0.00 0.00 0.00 92 1014.6
20200406050034 45 160 0.0 1.0 0.00 0.00 0.00 91 1014.6
20200406043140 45 0.0 0.0 0.00 0.00 0.00 89 1014.5
20200406041544 46 206 0.0 0.0 0.00 0.00 0.00 90 1014.6
20200406040110 47 277 0.0 0.0 0.00 0.00 0.00 88 1014.5
20200406033017 47 169 0.0 0.0 0.00 0.00 0.00 87 1014.5
20200406031537 48 165 0.0 0.0 0.00 0.00 0.00 83 1014.4
20200406030100 50 175 0.0 0.0 0.00 0.00 0.00 82 1014.5
20200406023023 49 4 0.0 0.0 0.00 0.00 0.00 82 1014.4
20200406021533 50 128 0.0 0.0 0.00 0.00 0.00 81 1014.5
20200406020027 50 270 0.0 0.0 0.00 0.00 0.00 80 1014.4
20200406013056 51 295 0.0 2.0 0.00 0.00 0.00 78 1014.5
20200406011518 52 38 0.0 1.0 0.00 0.00 0.00 76 1014.4
20200406010014 52 51 0.0 1.0 0.00 0.00 0.00 74 1014.5
20200406003024 53 5 0.0 2.0 0.00 0.00 0.00 73 1014.4
20200406001519 53 92 0.0 2.0 0.00 0.00 0.00 73 1014.4
20200406000011 53 21 0.0 3.0 0.00 0.00 0.00 72 1014.4
20200405233018 54 0.0 3.0 0.00 0.00 0.00 70 1014.4
20200405231508 54 39 0.0 2.0 0.00 0.00 0.00 69 1014.3
20200405230004 54 9 0.0 2.0 0.00 0.00 0.00 69 1014.4
20200405223010 55 164 0.0 2.0 0.00 0.00 0.00 68 1014.7